Flag for Germany Weather past 2 weeks in Rendsburg, Schleswig-Holstein, Germany

Now
55 °F

Light rain. Partly sunny.


Feels Like: 53 °F
Forecast: 51 / 62 °F
Wind: 10 mph from South

Location: Hohn

Current Time: Aug 22, 2014 at 10:37:36 AM

Latest Report: Aug 22, 2014 at 9:20 AM


Visibility: N/A

Pressure: 29.77 "Hg

Humidity: 82%

Dew point: 50 °F

Location of RendsburgLocation

Historic Weather in Rendsburg — Graph

°F

Rendsburg temperature yesterday

Maximum temperature yesterday: 63 °F (at 2:20 PM)
Minimum temperature yesterday: 48 °F (at 12:20 AM)
Average temperature yesterday: 54 °F

Past Weeks' High & Low Weather Summary

 TemperatureHumidityPressure
High77 °F (Aug 8, 2:20 PM)100% (Aug 8, 3:20 AM)29.98 "Hg (Aug 8, 3:20 AM)
Low48 °F (Aug 21, 12:20 AM)39% (Aug 8, 6:20 PM)29.42 "Hg (Aug 18, 9:20 AM)
Average60 °F78%29.75 "Hg
* Reported Aug 7 9:20 AM — Aug 22 9:20 AM, Rendsburg, Weather by CustomWeather, © 2014

Note: Actual official high and low records may vary slightly from our data, if they occured in-between our weather recording intervals... More about our weather records

Advertising

Rendsburg weather history for previous 24 hours

 ConditionsComfort  
Time TempWeatherWind HumidityBarometerVisibility
9:20 AM
Aug 22
55 °FLight rain. Partly sunny.10 mph82%29.77 "HgN/A
8:20 AM54 °FPartly sunny.9 mph88%29.80 "HgN/A
7:20 AM52 °FBroken clouds.8 mph88%29.80 "Hg4 mi
6:20 AM52 °FFog.7 mph88%29.80 "Hg3 mi
5:20 AM52 °FPassing clouds.8 mph88%29.80 "Hg3 mi
4:20 AM52 °FCool.7 mph88%29.83 "Hg3 mi
3:20 AM52 °FCool.6 mph88%29.83 "Hg3 mi
2:20 AM52 °FCool.6 mph88%29.86 "Hg4 mi
1:20 AM52 °FCool.6 mph94%29.86 "Hg4 mi
12:20 AM52 °FCool.7 mph94%29.89 "Hg4 mi
11:20 PM
Aug 21
52 °FCool.5 mph94%29.89 "Hg4 mi
10:20 PM52 °FCool.3 mph94%29.89 "Hg4 mi
9:20 PM54 °FCool.5 mph88%29.89 "Hg4 mi
8:20 PM52 °FCool.5 mph94%29.92 "Hg5 mi
7:20 PM54 °FCool.14 mph88%29.92 "Hg4 mi
6:20 PM61 °FCool.6 mph63%29.92 "Hg5 mi
5:20 PM61 °FMore clouds than sun.9 mph63%29.92 "HgN/A
4:20 PM59 °FPartly sunny.14 mph63%29.92 "HgN/A
3:20 PM61 °FBroken clouds.15 mph59%29.92 "HgN/A
2:20 PM63 °FScattered clouds.14 mph56%29.92 "HgN/A
1:20 PM61 °FScattered clouds.14 mph59%29.92 "HgN/A
12:20 PM61 °FPassing clouds.10 mph59%29.92 "HgN/A
11:20 AM59 °FPassing clouds.13 mph68%29.92 "HgN/A
10:20 AM57 °FPassing clouds.9 mph77%29.92 "HgN/A
Weather by CustomWeather, © 2014

See weather overviewHow to use our weather pages